Regional Weather Roundup
Issued by NWS

Home | Current Version | Previous Version | Graphics & Text | Print | Product List | Glossary On
Versions: 1 2 3 4 5 6 7 8 9 10 11 12 13 14 15 16 17 18 19 20 21 22 23 24 25 26 27 28 29 30 31 32 33 34 35 36 37 38 39 40 41 42 43 44 45 46 47 48 49 50
000
ASUS45 KBOU 010007
RWRCO

WEATHER ROUNDUP FOR COLORADO
NATIONAL WEATHER SERVICE DENVER/BOULDER CO
600 PM MDT MON AUG 31 2015

NOTE: "FAIR" INDICATES FEW OR NO CLOUDS BELOW 12000 FEET WITH NO
SIGNIFICANT WEATHER AND/OR OBSTRUCTIONS TO VISIBILITY.

COZ001>005-013-030-031-010100-
...NORTHWEST COLORADO...

CITY           SKY/WX    TMP DP  RH WIND       PRES   REMARKS
CRAIG          CLOUDY    67  43  41 N13G23    30.23R
HAYDEN         NOT AVBL
MEEKER         PTSUNNY   68  46  45 NW8       30.20R
MOUNT WERNER   NOT AVBL
STEAMBOAT SPGS CLOUDY    65  47  53 W13       30.23R
WALDEN         CLOUDY    63  34  34 W6        30.32R
$$

COZ006>008-011-010100-
...WEST CENTRAL VALLEYS...

CITY           SKY/WX    TMP DP  RH WIND       PRES   REMARKS
GRAND JUNCTION PTSUNNY   81  52  36 SE3       30.05F
MONTROSE       CLOUDY    77  50  38 NW6       30.16R
EAGLE          SUNNY     72  46  40 CALM      30.24F
RIFLE          PTSUNNY   78  51  38 NW3       30.13S
DELTA          CLOUDY    82  50  33 E3        30.10F
NUCLA          CLOUDY    79  37  22 SW8       30.19S
$$

COZ017>023-064>068-010100-
...SOUTHWEST COLORADO...

CITY           SKY/WX    TMP DP  RH WIND       PRES   REMARKS
DURANGO        PTSUNNY   80  38  22 W14       30.19F
CORTEZ         SUNNY     79  42  26 W13       30.16S
PAGOSA SPRINGS PTSUNNY   76  38  25 W5        30.26F
TELLURIDE      CLOUDY    65  44  45 W7        30.41S
WOLF CREEK PAS CLOUDY    50  41  71 SW10      30.61S THUNDER
$$

COZ009-010-012-014-032>034-037-058>063-010100-
...CENTRAL COLORADO...

CITY           SKY/WX    TMP DP  RH WIND       PRES   REMARKS
ASPEN          PTSUNNY   67  50  54 NE6       30.29S
BUENA VISTA    PTSUNNY   65  49  55 CALM      30.28F
COPPER MTN     PTSUNNY   54  43  66 W14       30.59S
BERTHOUD PASS  FAIR      41  30  65 NW8       30.63S
COTTONWOOD PAS PTSUNNY   61  46  59 CALM      30.42F
GUNNISON       MOSUNNY   72  41  33 SW7       30.28S
KREMMLING      PTSUNNY   70  43  37 SW5       30.29S
LEADVILLE      PTSUNNY   61  41  47 N9        30.41S
SALIDA         PTSUNNY   69  47  45 NW12      30.31F
SUNLIGHT       PTSUNNY   55  50  82 CALM      30.53S
WILKERSON PASS CLOUDY    50  43  76 CALM      30.56F
$$

COZ069>075-010100-
...SAN LUIS VALLEY/SANGRE DE CRISTO MOUNTAINS...

CITY           SKY/WX    TMP DP  RH WIND       PRES   REMARKS
ALAMOSA        PTSUNNY   70  44  39 NE12      30.25S
LA VETA PASS   PTSUNNY   55  46  71 MISG      30.47S
SAGUACHE       PTSUNNY   68  43  40 NW7       30.29S
$$

COZ035-036-038>040-010100-
...NORTHERN COLORADO FRONT RANGE...

CITY           SKY/WX    TMP DP  RH WIND       PRES   REMARKS
DENVER INTL AP CLOUDY    67  55  65 SW7       30.15S
DMNS CITY PARK   N/A     67  56  69 E12G62    30.14R
AURORA         PTSUNNY   68  52  55 SW8       30.18R
FRONT RANGE AP CLOUDY    64  55  72 CALM      30.19R
ERIE MUNI ARPT CLOUDY    68  61  77 SW6       30.11F
BOULDER MUN AP CLOUDY    70  55  60 S3        30.12F
CENTENNIAL     CLOUDY    66  55  67 E8        30.18R
BROOMFIELD     PTSUNNY   66  57  72 CALM      30.15F
FORT COLLINS   CLOUDY    73  52  46 SW5       30.09R
LONGMONT       CLOUDY    73  56  55 SW7       30.11F
$$

COZ041-046-047-076>085-087-088-010100-
...PIKES PEAK/PALMER DIVIDE AND SOUTHERN FOOTHILLS...

CITY           SKY/WX    TMP DP  RH WIND       PRES   REMARKS
COLO. SPRINGS  CLOUDY    71  55  56 NW8       30.19R
A. F. ACADEMY  CLOUDY    67  55  65 N12       30.22R
ELLICOTT       CLOUDY   N/A N/A N/A NW9G26    30.18R THUNDER
FALCON         CLOUDY    64  54  70 MISG      30.25S
FORT CARSON    MOSUNNY   70  57  63 N12       30.15R
LIMON          PTSUNNY   73  51  46 W25G33    30.10R
MONUMENT HILL  CLOUDY    59  52  77 NW3       30.27R
TRINIDAD       CLOUDY    77  50  38 NW9       30.11R
$$

COZ042>045-048>051-090-091-010100-
...NORTHEAST COLORADO...

CITY           SKY/WX    TMP DP  RH WIND       PRES   REMARKS
GREELEY ARPT   CLOUDY    75  48  38 NW21      30.08R
AKRON          CLOUDY    84  46  26 E10       30.03R
BURLINGTON     SUNNY     89  47  23 E6        29.96S
WRAY           CLOUDY    91  49  24 NE15      29.95R
STERLING       MOSUNNY   88  50  27 E9        29.97F
HOLYOKE        PTSUNNY   88  50  27 NE10G17   29.97F
FORT MORGAN    MOSUNNY   82  48  31 S3        30.03S
$$

COZ086-089-092>099-010100-
...SOUTHEAST COLORADO...

CITY           SKY/WX    TMP DP  RH WIND       PRES   REMARKS
PUEBLO         CLOUDY    78  53  41 NW12G25   30.02R
LA JUNTA       CLOUDY    94  45  18 NW6       29.93F
LAMAR          MOSUNNY   91  59  33 CALM      29.88R
SPRINGFIELD      N/A     85  51  31 SW13      29.96R
$$



USA.gov is the U.S. government's official web portal to all federal, state and local government web resources and services.